Weather in Leyptsig

Russia / Chelyabinsk Oblast     53°34′09″N   61°02′44″E
temp.,
°C
wind,
m/s
gust,
m/s
humid.,
%
clouds,
%
prec.,
mm/h
press.,
hPa
HPBL,
m
19 january, tue
tue1923:00−22wsw008574 0.0 102320
02:00−21e1186100 0.0 102220
05:00−18ese1188100 0.0 102280
08:00−18e2492100 0.0 1021165
11:00−17e3597100 1.4 1021244
14:00−16e4795100 0.8 1020271
17:00−15ene4795100 1.1 1018305
20:00−15ene4895100 0.4 1017389
20 january, wed
wed2023:00−14ene3696100 1.9 1016368
02:00−14nne2297100 2.3 101487
05:00−14nnw2496100 3.9 1013132
08:00−15wnw359696 0.1 1012119
11:00−16w489296 0.2 1013212
14:00−16w488919 0.0 1014243
17:00−17wsw488910 0.0 1015143
20:00−17wsw510880 0.0 1017196
21 january, thu
thu2123:00−19wsw510870 0.0 1018169
02:00−21wsw49890 0.0 1018149
05:00−22wsw49890 0.0 1018174
08:00−24wsw47894 0.0 1018103
11:00−20w479148 0.0 1019228
14:00−18w378963 0.0 1018232
17:00−20w348955 0.0 101855
20:00−18w358797 0.0 101995
22 january, fri
fri2223:00−18w468799 0.0 101998
02:00−18w368998 0.0 1018118
05:00−17wsw368998 0.0 1017110
08:00−16wsw379298 0.0 1017163
11:00−14wsw499599 0.2 1016282
14:00−11sw5894100 0.6 1014375
17:00−14sw4895100 1.1 1015407
20:00−18wsw349592 0.1 101682
23 january, sat
sat2323:00−17nnw379791 0.1 1018140
02:00−20nnw459789 0.0 102186
05:00−21nnw349776 0.0 102332
08:00−22n339880 0.0 102725
11:00−23nne239888 0.0 103032
14:00−23ne239686 0.0 1032145
17:00−24e239693 0.0 103440
20:00−23se3496100 0.0 1035164